Weather History for PAMH - May, 2014

Change the Weather History Date:

Friday, May 2, 2014

  Actual Average Record
Temperature  
Mean Temperature 59 °F -  
Max Temperature 68 °F 44 °F 68 °F (2014)
Min Temperature 50 °F 28 °F 12 °F (2001)
Degree Days  
Heating Degree Days 6    
Growing Degree Days 9 (Base 50)    
Moisture  
Dew Point 30 °F    
Average Humidity 33    
Maximum Humidity 43    
Minimum Humidity 24    
Precipitation  
Precipitation 0.00 in - - ()
Sea Level Pressure  
Sea Level Pressure 30.26 in    
Wind  
Wind Speed 2 mph (NE)    
Max Wind Speed 8 mph    
Max Gust Speed -    
Visibility 10 miles    
Events      
Averages and records for this station are not official NWS values.
T = Trace of Precipitation, MM = Missing Value Source: NWS Daily Summary

Daily Weather History Graph

Daily Weather History Graph

Search for Another Location

Airport or City:

Trip Planner

Search our weather history database for the weather conditions in past years. The results will help you decide how hot, cold, wet, or windy it might be!

Date:

Astronomy

May. 02, 2014 Rise Set
Actual Time 5:39 AM AKDT 10:35 PM AKDT
Civil Twilight 4:29 AM AKDT 11:46 PM AKDT
Nautical Twilight 2:38 AM AKDT 1:33 AM AKDT
Astronomical Twilight Sun does not rise Sun does not rise
Moon 7:59 AM AKDT (5/2) 1:40 AM AKDT (5/2)
Length of Visible Light 19h 16m
Length of Day
16h 56m
Waxing Crescent, 13% of the Moon is Illuminated
May 2
Waxing Crescent
May 6
First Quarter
May 14
Full
May 21
Last Quarter
May 28
New

Hourly Weather History & Observations

Time (AKDT) Temp. Dew Point Humidity Pressure Visibility Wind Dir Wind Speed Gust Speed Precip Events Conditions
12:16 AM 57.2 °F 30.2 °F 36% 30.42 in 10.0 mi Calm Calm - N/A   Clear
12:36 AM 55.4 °F 30.2 °F 38% 30.42 in 10.0 mi Calm Calm - N/A   Clear
12:56 AM 55.4 °F 30.2 °F 38% 30.42 in 10.0 mi Calm Calm - N/A   Clear
1:16 AM 55.4 °F 28.4 °F 36% 30.42 in 10.0 mi Calm Calm - N/A   Clear
1:36 AM 55.4 °F 28.4 °F 36% 30.42 in 10.0 mi Calm Calm - N/A   Clear
1:56 AM 55.4 °F 28.4 °F 36% 30.42 in 10.0 mi Calm Calm - N/A   Clear
2:16 AM 55.4 °F 28.4 °F 36% 30.42 in 10.0 mi Calm Calm - N/A   Clear
2:36 AM 53.6 °F 28.4 °F 38% 30.42 in 10.0 mi Calm Calm - N/A   Clear
2:56 AM 53.6 °F 28.4 °F 38% 30.41 in 10.0 mi Calm Calm - N/A   Clear
3:16 AM 53.6 °F 28.4 °F 38% 30.41 in 10.0 mi NNE 3.5 mph - N/A   Clear
3:36 AM 53.6 °F 28.4 °F 38% 30.41 in 10.0 mi Calm Calm - N/A   Clear
3:56 AM 53.6 °F 28.4 °F 38% 30.39 in 10.0 mi Calm Calm - N/A   Clear
4:16 AM 51.8 °F 28.4 °F 41% 30.39 in 10.0 mi NE 3.5 mph - N/A   Clear
4:36 AM 53.6 °F 28.4 °F 38% 30.38 in 10.0 mi NE 4.6 mph - N/A   Clear
4:56 AM 53.6 °F 28.4 °F 38% 30.38 in 10.0 mi East 3.5 mph - N/A   Clear
5:16 AM 50.0 °F 28.4 °F 43% 30.38 in 10.0 mi Calm Calm - N/A   Clear
5:36 AM 51.8 °F 28.4 °F 41% 30.37 in 10.0 mi NE 3.5 mph - N/A   Clear
5:56 AM 51.8 °F 28.4 °F 41% 30.37 in 10.0 mi Calm Calm - N/A   Clear
6:16 AM 51.8 °F 28.4 °F 41% 30.37 in 10.0 mi NE 3.5 mph - N/A   Clear
6:36 AM 53.6 °F 28.4 °F 38% 30.36 in 10.0 mi NE 4.6 mph - N/A   Clear
6:56 AM 53.6 °F 28.4 °F 38% 30.36 in 10.0 mi NNE 4.6 mph - N/A   Clear
7:16 AM 53.6 °F 28.4 °F 38% 30.35 in 10.0 mi Calm Calm - N/A   Clear
7:36 AM 53.6 °F 30.2 °F 41% 30.35 in 10.0 mi Calm Calm - N/A   Clear
7:56 AM 53.6 °F 30.2 °F 41% 30.35 in 10.0 mi NE 3.5 mph - N/A   Clear
8:16 AM 55.4 °F 30.2 °F 38% 30.35 in 10.0 mi Calm Calm - N/A   Clear
8:36 AM 55.4 °F 30.2 °F 38% 30.35 in 10.0 mi NNE 3.5 mph - N/A   Clear
8:56 AM 57.2 °F 30.2 °F 36% 30.34 in 10.0 mi NNE 3.5 mph - N/A   Clear
9:16 AM 57.2 °F 30.2 °F 36% 30.33 in 10.0 mi NNE 3.5 mph - N/A   Clear
9:36 AM 59.0 °F 30.2 °F 34% 30.32 in 10.0 mi NE 3.5 mph - N/A   Clear
9:56 AM 60.8 °F 30.2 °F 31% 30.31 in 10.0 mi NNE 4.6 mph - N/A   Clear
10:16 AM 60.8 °F 30.2 °F 31% 30.31 in 10.0 mi NNE 3.5 mph - N/A   Clear
10:36 AM 60.8 °F 30.2 °F 31% 30.30 in 10.0 mi NE 6.9 mph - N/A   Clear
10:56 AM 62.6 °F 32.0 °F 32% 30.30 in 10.0 mi NE 5.8 mph - N/A   Clear
11:16 AM 64.4 °F 32.0 °F 30% 30.29 in 10.0 mi NE 6.9 mph - N/A   Clear
11:36 AM 64.4 °F 32.0 °F 30% 30.28 in 10.0 mi NE 4.6 mph - N/A   Clear
11:56 AM 66.2 °F 32.0 °F 28% 30.28 in 10.0 mi NNE 5.8 mph - N/A   Clear
12:16 PM 64.4 °F 30.2 °F 28% 30.27 in 10.0 mi Calm Calm - N/A   Clear
12:36 PM 64.4 °F 30.2 °F 28% 30.26 in 10.0 mi NE 5.8 mph - N/A   Clear
12:56 PM 66.2 °F 32.0 °F 28% 30.25 in 10.0 mi NE 6.9 mph - N/A   Clear
1:16 PM 66.2 °F 32.0 °F 28% 30.25 in 10.0 mi NE 5.8 mph - N/A   Clear
1:36 PM 66.2 °F 32.0 °F 28% 30.24 in 10.0 mi NE 6.9 mph - N/A   Clear
1:56 PM 64.4 °F 32.0 °F 30% 30.23 in 10.0 mi ENE 4.6 mph - N/A   Clear
2:16 PM 64.4 °F 30.2 °F 28% 30.22 in 10.0 mi NE 6.9 mph - N/A   Clear
2:36 PM 62.6 °F 30.2 °F 30% 30.22 in 10.0 mi NE 5.8 mph - N/A   Clear
2:56 PM 64.4 °F 32.0 °F 30% 30.21 in 10.0 mi NE 5.8 mph - N/A   Clear
3:16 PM 60.8 °F 30.2 °F 31% 30.20 in 10.0 mi NE 8.1 mph - N/A   Clear
3:36 PM 60.8 °F 30.2 °F 31% 30.19 in 10.0 mi NE 6.9 mph - N/A   Clear
3:56 PM 62.6 °F 32.0 °F 32% 30.19 in 10.0 mi NE 5.8 mph - N/A   Clear
4:16 PM 64.4 °F 32.0 °F 30% 30.18 in 10.0 mi NE 4.6 mph - N/A   Clear
4:36 PM 66.2 °F 32.0 °F 28% 30.17 in 10.0 mi NE 5.8 mph - N/A   Clear
4:56 PM 66.2 °F 30.2 °F 26% 30.16 in 10.0 mi NE 4.6 mph - N/A   Clear
5:16 PM 68.0 °F 32.0 °F 26% 30.16 in 10.0 mi NE 4.6 mph - N/A   Clear
5:36 PM 68.0 °F 30.2 °F 24% 30.15 in 10.0 mi NE 3.5 mph - N/A   Clear
5:56 PM 66.2 °F 30.2 °F 26% 30.15 in 10.0 mi NE 4.6 mph - N/A   Clear
6:16 PM 66.2 °F 30.2 °F 26% 30.15 in 10.0 mi NE 3.5 mph - N/A   Clear
6:36 PM 66.2 °F 30.2 °F 26% 30.14 in 10.0 mi NE 3.5 mph - N/A   Clear
6:56 PM 66.2 °F 32.0 °F 28% 30.13 in 10.0 mi NE 3.5 mph - N/A   Clear
7:16 PM 66.2 °F 30.2 °F 26% 30.13 in 10.0 mi Calm Calm - N/A   Clear
7:36 PM 66.2 °F 32.0 °F 28% 30.12 in 10.0 mi Calm Calm - N/A   Clear
7:56 PM 66.2 °F 32.0 °F 28% 30.12 in 10.0 mi NE 3.5 mph - N/A   Clear
8:16 PM 66.2 °F 32.0 °F 28% 30.11 in 10.0 mi NE 3.5 mph - N/A   Clear
8:36 PM 64.4 °F 32.0 °F 30% 30.11 in 10.0 mi Calm Calm - N/A   Clear
8:56 PM 64.4 °F 30.2 °F 28% 30.10 in 10.0 mi Calm Calm - N/A   Clear
9:16 PM 64.4 °F 30.2 °F 28% 30.10 in 10.0 mi Calm Calm - N/A   Clear
9:36 PM 62.6 °F 30.2 °F 30% 30.10 in 10.0 mi Calm Calm - N/A   Clear
9:56 PM 62.6 °F 30.2 °F 30% 30.09 in 10.0 mi Calm Calm - N/A   Clear
10:16 PM 62.6 °F 30.2 °F 30% 30.09 in 10.0 mi Calm Calm - N/A   Clear
10:36 PM 59.0 °F 32.0 °F 36% 30.09 in 10.0 mi West 4.6 mph - N/A   Clear
10:56 PM 57.2 °F 32.0 °F 38% 30.08 in 10.0 mi WSW 4.6 mph - N/A   Clear
11:16 PM 57.2 °F 32.0 °F 38% 30.08 in 10.0 mi WNW 3.5 mph - N/A   Clear
11:36 PM 55.4 °F 32.0 °F 41% 30.08 in 10.0 mi WNW 3.5 mph - N/A   Clear
11:56 PM 55.4 °F 32.0 °F 41% 30.08 in 10.0 mi NNW 3.5 mph - N/A   Clear